Tracking 31027 objects as of 19-Jul-2025
HD Live streaming from Space Station
objects crossing your sky now

ICEYE-X17

Track ICEYE-X17 now!
10-day predictions


NORAD ID: 52762
Int'l Code: 2022-057AG
Perigee: 300.2 km
Apogee: 309.5 km
Inclination: 97.6 °
Period: 90.5 minutes
Semi major axis: 6675 km
RCS: Unknown
Launch date: May 25, 2022
Source: United States (US)
Launch site: AIR FORCE EASTERN TEST RANGE (AFETR)
Your satellite tracking list
CZ-3A R/B
Track 1 satellite(s)




NASA's NSSDC Master Catalog

Two Line Element Set (TLE):
1 52762U 22057AG  25199.85047979  .00366383  52927-4  11344-2 0  9996
2 52762  97.5846 348.5774 0006947 162.7510 197.4000 15.91630671175743
Source of the keplerian elements: AFSPC